SCP
0 0 0 0 0 0 0 0 0 0 0 0 0 0 0 0 0 0 0 0 0 0 0 0 0 0 0 0 0 0 0 0 0 0 0 0 0 0 0 0 0 0 0
0 0 0 0 0 0 0 0 0 0 0 0 0 0 0 0 0 0 0 0 0 0 0 0 0 0 0 0 0 0 0 0 0 0 0 0 0 0 0 0 0 0 0
0 0 0 0 0 0 0 0 0 0 0 0 0 0 0 0 0 0 0 0 0 0 0 0 0 0 0 0 0 0 0 0 0 0 0 0 0 0 0 0 0 0 0
0 0 0 0 0 0 0 0 0 0 0 0 0 0 0 0 0 0 0 0 0 0 0 0 0 0 0 0 0 0 0 0 0 0 0 0 0 0 0 0 0 0 0
0 0 0 0 0 0 0 0 0 0 0 0 0 0 0 0 0 0 0 0 0 0 0 0 0 0 0 0 0 0 0 0 0 0 0 0 0 0 0 0 0 0 0
0 0 0 0 0 0 0 0 0 0 0 0 0 0 0 0 0 0 0 0 0 0 0 0 0 0 0 0 0 0 0 0 0 0 0 0 0 0 0 0 0 0 0
0 0 0 0 0 0 0 0 0 0 0 0 0 0 0 0 0 0 0 0 0 0 0 0 0 0 0 0 0 0 0 0 0 0 0 0 0 0 0 0 0 0 0
0 0 0 0 0 0 0 0 0 0 0 0 0 0 0 0 0 0 0 0 0 0 0 0 0 0 0 0 0 0 0 0 0 0 0 0 0 0 0 0 0 0 0
0 0 0 0 0 0 0 0 0 0 0 0 0 0 0 0 0 0 0 0 0 0 0 0 0 0 0 0 0 0 0 0 0 0 0 0 0 0 0 0 0 0 0
0 0 0 0 0 0 0 0 0 0 0 0 0 0 0 0 0 0 0 0 0 0 0 0 0 0 0 0 0 0 0 0 0 0 0 0 0 0 0 0 0 0 0
0 0 0 0 0 0 0 0 0 0 0 0 0 0 0 0 0 0 0 0 0 0 0 0 0 0 0 0 0 0 0 0 0 0 0 0 0 0 0 0 0 0 0
0 0 0 0 0 0 0 0 0 0 0 0 0 0 0 0 0 0 0 0 0 0 0 0 0 0 0 0 0 0 0 0 0 0 0 0 0 0 0 0 0 0 0
0 0 0 0 0 0 0 0 0 0 0 0 0 0 0 0 0 0 0 0 0 0 0 0 0 0 0 0 0 0 0 0 0 0 0 0 0 0 0 0 0 0 0
0 0 0 0 0 0 0 0 0 0 0 0 0 0 0 0 0 0 0 0 0 0 0 0 0 0 0 0 0 0 0 0 0 0 0 0 0 0 0 0 0 0 0
0 0 0 0 0 0 0 0 0 0 0 0 0 0 0 0 0 0 0 0 0 0 0 0 0 0 0 0 0 0 0 0 0 0 0 0 0 0 0 0 0 0 0
0 0 0 0 0 0 0 0 0 0 0 0 0 0 0 0 0 0 0 0 0 0 0 0 0 0 0 0 0 0 0 0 0 0 0 0 0 0 0 0 0 0 0
0 0 0 0 0 0 0 0 0 0 0 0 0 0 0 0 0 0 0 0 0 0 0 0 0 0 0 0 0 0 0 0 0 0 0 0 0 0 0 0 0 0 0
0 0 0 0 0 0 0 0 0 0 0 0 0 0 0 0 0 0 0 0 0 0 0 0 0 0 0 0 0 0 0 0 0 0 0 0 0 0 0 0 0 0 0
0 0 0 0 0 0 0 0 0 0 0 0 0 0 0 0 0 0 0 0 0 0 0 0 0 0 0 0 0 0 0 0 0 0 0 0 0 0 0 0 0 0 0
0 0 0 0 0 0 0 0 0 0 0 0 0 0 0 0 0 0 0 0 0 0 0 0 0 0 0 0 0 0 0 0 0 0 0 0 0 0 0 0 0 0 0
-0 0 0 0 0 0 0 0 0 0 0 0 0 0 0 0 0 0 0 0 0 0 0 0 0 0 0 0 0 0 0 0 0 0 0 0 0 0 0 0 0 0 0
-0 0 0 0 0 0 0 0 0 0 0 0 0 0 0 0 0 0 0 0 0 0 0 0 0 0 0 0 0 0 0 0 0 0 0 0 0 0 0 0 0 0 0
0 0 0 0 0 0 0 0 0 0 0 0 0 0 0 0 0 0 0 0 0 0 0 0 0 0 0 0 0 0 0 0 0 0 0 0 0 0 0 0 0 0 0
0 0 0 0 0 0 0 0 0 0 0 0 0 0 0 0 0 0 0 0 0 0 0 0 0 0 0 0 0 0 0 0 0 0 0 0 0 0 0 0 0 0 0
0 0 0 0 0 0 0 0 0 0 0 0 0 0 0 0 0 0 0 0 0 0 0 0 0 0 0 0 0 0 0 0 0 0 0 0 0 0 0 0 0 0 0
0 0 0 0 0 0 0 0 0 0 0 0 0 0 0 0 0 0 0 0 0 0 0 0 0 0 0 0 0 0 0 0 0 0 0 0 0 0 0 0 0 0 0
Wind_Speed
1 1 1 1 1 2 2 3 3 3 3 4 4 4 4 4 3 3 3 3 4 4 3 4 4 3 3 3 3 4 4 4 7 6 4 3 3 4 4 4 4 5 5
1 1 1 1 0 1 1 2 2 2 3 3 3 4 4 4 4 4 4 4 4 5 5 4 5 4 5 4 3 4 4 4 6 7 5 3 4 4 4 4 4 4 5
0 1 0 0 1 1 1 1 1 2 2 2 3 3 4 4 4 4 4 4 4 4 4 5 4 4 5 3 4 4 4 4 5 6 6 3 3 2 3 4 4 4 4
1 1 0 1 1 1 1 1 1 1 2 2 2 3 3 3 3 3 3 3 4 4 4 4 4 4 5 4 4 4 4 4 4 5 5 4 3 3 2 3 4 3 4
0 0 1 1 1 1 0 0 0 1 1 2 2 2 2 3 3 3 3 4 4 4 4 4 4 4 5 4 4 4 4 4 4 4 5 4 3 3 4 3 4 3 3
0 1 1 1 1 1 1 0 0 0 1 1 2 2 2 2 3 4 4 4 4 4 4 4 4 4 5 6 7 6 5 5 5 5 5 6 6 4 3 3 3 2 3
1 1 1 1 1 1 1 0 0 1 0 1 1 1 2 3 3 3 4 3 4 4 4 3 3 3 3 3 5 6 6 7 7 5 6 6 5 4 4 4 4 4 5
1 1 2 1 1 1 1 1 1 1 1 1 2 2 2 2 3 3 3 2 2 3 3 3 4 4 3 3 3 4 5 5 6 5 5 5 4 3 4 4 4 4 3
2 2 2 1 1 1 1 1 1 1 1 1 1 1 2 3 3 3 2 2 2 3 3 3 4 4 6 6 4 4 5 5 6 6 7 6 6 5 3 2 2 2 3
3 3 2 2 1 1 2 2 1 1 1 1 1 1 2 2 3 3 3 1 2 3 3 3 4 5 6 6 4 4 6 5 3 3 4 5 4 4 4 3 3 3 2
3 3 2 2 2 2 1 1 1 1 1 1 2 2 2 2 4 4 4 2 2 3 3 3 3 7 8 8 7 5 6 5 3 3 3 3 2 2 2 2 2 3 4
3 3 3 2 2 1 1 1 0 0 1 1 2 2 2 2 3 4 5 5 4 3 3 3 3 7 8 8 6 6 7 4 2 2 2 2 3 3 2 2 3 3 3
3 3 3 3 2 1 1 1 0 1 1 2 2 3 3 2 3 6 6 6 6 4 3 5 6 7 7 5 6 6 4 2 2 2 3 3 3 3 2 2 2 2 2
3 3 3 3 3 2 1 1 1 2 2 2 3 3 3 3 3 3 3 4 5 4 3 4 5 5 5 4 3 3 2 2 2 3 3 2 2 2 2 2 2 2 2
4 3 3 2 3 3 2 2 3 3 3 4 3 3 3 4 5 6 4 3 3 3 2 1 1 2 2 2 2 2 2 2 2 3 2 2 2 2 2 2 2 2 2
3 3 3 3 2 2 2 3 5 5 6 6 6 5 4 6 7 6 6 6 5 3 1 1 2 2 3 3 3 3 2 2 2 3 3 3 3 3 3 2 2 3 4
4 4 3 3 3 3 3 3 4 5 6 7 7 7 7 7 7 7 6 6 4 1 1 2 3 3 3 3 3 3 4 3 3 3 3 3 3 3 3 3 3 3 4
4 4 3 3 3 3 3 4 3 4 4 4 6 8 8 8 7 7 5 2 2 2 2 3 4 4 4 4 4 4 4 3 3 3 4 3 3 3 3 4 4 4 4
4 4 3 4 3 4 4 3 4 4 4 4 4 5 6 7 7 6 3 2 3 4 4 4 4 4 4 4 4 4 4 4 4 3 4 4 3 3 4 4 4 5 5
4 5 4 4 4 4 4 4 4 4 4 4 5 4 3 3 3 3 3 3 4 4 4 4 4 4 4 4 4 4 4 4 4 4 4 4 4 4 4 5 4 4 5
4 4 5 4 4 4 4 5 5 4 5 5 5 6 6 4 4 5 4 5 5 5 5 5 4 4 4 4 4 4 5 4 4 4 4 4 4 4 4 4 5 5 5
4 4 4 4 4 5 5 5 5 5 5 6 5 5 7 4 4 4 5 5 5 4 4 4 5 4 4 5 4 5 5 5 5 4 4 4 4 4 4 4 4 4 4
4 4 4 4 4 5 5 4 5 5 5 5 5 4 4 4 5 5 5 5 4 4 4 4 5 5 4 4 5 5 6 6 5 5 5 5 5 5 4 5 5 5 5
4 5 5 5 4 4 5 5 5 5 5 5 5 5 5 5 5 6 5 5 4 4 4 4 5 6 7 5 4 5 5 6 5 5 7 6 6 5 5 5 5 5 5
4 5 5 5 5 5 5 5 5 5 5 5 5 5 5 5 5 6 5 5 5 5 5 5 4 5 7 8 7 6 8 9 8 6 5 6 6 6 6 5 5 5 5
4 4 5 4 5 5 5 5 6 6 5 5 5 5 5 5 5 5 5 5 5 5 5 5 6 7 7 7 8 9 9 9 9 8 6 5 6 6 5 5 6 5 5
Wind_Direction
211 216 224 230 229 211 212 217 217 216 204 199 201 200 205 204 202 205 216 213 219 230 230 228 239 238 239 240 235 231 230 226 247 263 252 252 242 250 261 246 248 247 258
218 204 232 270 2 206 230 233 218 213 204 199 197 198 205 206 203 207 218 218 222 231 234 232 242 240 239 239 237 238 237 234 239 260 266 253 248 253 257 256 261 258 257
145 171 226 302 261 241 239 238 207 200 195 191 188 199 207 206 208 214 218 221 226 232 235 234 240 238 245 247 246 245 246 251 247 251 261 255 260 263 267 267 266 263 265
109 141 223 260 254 256 252 227 205 187 183 197 206 214 213 207 211 217 221 223 231 240 240 238 239 234 242 245 246 247 249 251 251 251 256 256 255 256 248 260 273 260 268
103 169 268 296 313 321 303 258 209 193 203 202 202 215 219 217 220 218 221 222 230 242 246 244 242 242 247 246 248 248 243 246 246 250 256 255 249 252 249 244 260 278 275
26 299 324 350 355 328 303 321 97 227 222 190 204 213 229 245 252 233 225 224 229 237 246 251 253 248 256 257 259 259 251 247 246 244 253 254 252 246 247 247 258 277 278
12 348 348 352 340 311 317 343 269 255 272 247 246 233 244 265 272 255 244 233 232 240 247 255 263 268 257 257 266 269 266 264 254 247 249 255 258 244 230 240 240 244 252
3 343 345 344 320 328 334 299 290 288 259 253 268 257 258 279 285 277 261 237 238 249 251 249 253 263 259 259 260 267 269 268 265 258 255 264 265 261 235 232 236 252 268
345 327 320 310 305 313 291 282 285 280 274 275 290 281 271 290 306 300 289 248 253 259 262 258 256 257 270 270 261 264 274 277 277 269 269 270 272 268 250 219 224 232 266
313 310 313 303 284 265 261 271 285 260 258 271 290 292 282 291 309 307 300 259 261 272 274 267 264 268 277 270 255 251 263 276 286 295 284 283 282 276 258 227 223 231 249
317 318 320 305 283 270 268 285 289 262 281 287 292 300 298 297 300 300 298 275 265 273 275 276 274 277 278 274 267 256 260 274 270 267 275 281 289 286 277 253 231 227 233
321 314 309 305 295 287 272 286 309 273 270 286 297 300 302 306 308 302 294 286 290 268 266 274 279 283 283 281 274 270 274 273 263 263 267 270 273 276 278 268 252 244 240
316 307 309 311 304 296 265 254 255 238 249 266 270 278 291 300 298 296 288 282 282 278 277 282 288 287 289 286 281 280 279 260 255 258 258 263 266 269 277 284 281 269 275
307 306 309 305 303 297 274 251 240 233 239 252 263 270 282 289 286 287 280 276 275 274 280 284 286 291 295 301 302 295 286 271 257 256 264 273 281 277 271 272 276 283 286
306 305 301 294 291 285 273 255 248 243 238 238 245 251 260 269 275 283 288 279 272 269 297 302 302 308 301 303 303 294 287 280 273 273 267 269 270 268 268 261 254 255 253
295 296 290 288 285 281 283 292 286 277 279 272 272 271 271 278 289 282 280 285 295 305 331 267 274 277 275 275 278 284 283 277 278 279 270 263 262 260 266 264 254 245 252
277 282 283 282 278 275 271 271 286 293 286 286 282 281 282 288 286 282 279 282 290 297 237 257 264 265 265 267 269 268 270 273 274 268 265 261 263 264 259 256 252 251 254
275 276 273 269 268 268 263 262 262 269 281 282 282 280 283 287 287 284 278 271 266 258 247 250 258 263 266 264 264 269 273 273 269 271 268 261 254 255 259 258 252 249 254
270 270 269 268 263 262 261 261 260 258 263 275 289 285 278 282 283 279 263 220 237 246 247 250 253 257 262 262 262 262 264 265 263 261 264 260 253 246 252 256 256 254 252
267 271 270 267 263 260 255 252 254 255 258 262 263 268 269 255 253 253 235 234 238 245 245 247 250 249 252 253 253 254 258 260 258 256 256 254 251 248 251 253 252 251 252
271 273 270 265 257 255 252 248 251 249 251 255 259 262 262 250 249 249 247 240 237 242 244 246 248 246 244 244 244 245 248 254 253 255 258 255 247 247 249 250 252 251 254
267 266 261 259 261 260 256 251 249 250 251 256 267 272 268 259 253 256 256 253 247 242 240 243 248 244 239 237 238 242 246 249 249 251 256 257 256 251 248 248 249 251 252
264 266 267 265 263 268 267 258 251 250 253 253 256 259 256 250 251 253 256 257 255 252 246 241 249 254 248 241 238 237 243 246 244 242 250 252 251 250 245 244 244 246 250
263 263 264 267 265 263 264 264 261 257 255 254 251 250 250 250 253 255 257 258 256 252 247 244 246 250 252 253 250 245 246 249 245 241 241 245 247 249 246 245 245 245 248
262 263 264 263 261 262 262 264 263 262 261 258 255 255 254 253 255 256 255 255 255 256 254 251 252 251 251 251 254 254 255 257 254 245 241 243 243 243 243 245 244 247 249
264 264 266 267 265 263 260 261 263 263 263 264 263 262 259 258 258 259 259 258 260 262 262 259 253 254 258 259 257 260 260 257 251 245 237 236 236 239 237 242 241 242 242